User: anonymous   Login
Location: Langangen
(59.1000°N, 9.8000°E)
Time: 11:23:14
(UTC+02:00)
Language:

Iridium 60 - Orbit

View from above orbital plane
View from above orbital plane
View from above satellite
View from above satellite

Ground track
Ground track

The orbit data is extracted from the following two-line orbital elements,

1 25276U 98019E   15211.47422156  .00000005  00000-0 -54381-5 0  9992
2 25276 086.3952 214.4520 0002293 086.0191 274.1267 14.34216618907490
Epoch (UTC): 30 July 2015 11:22:52
Eccentricity: 0.0002293
inclination: 86.3952°
perigee height: 776 km
apogee height: 779 km
right ascension of ascending node: 214.4520°
argument of perigee: 86.0191°
revolutions per day: 14.34216618
mean anomaly at epoch: 274.1267°
orbit number at epoch: 90749

The dashed part of the orbit path shows where the satellite is in the earth's shadow,  

DLR